This is the latest recevied weather packets stored in our database for station/object IT9CNT. If no packets are shown the sender has not sent any weather packets the latest 1 day(s).
| Time | Temp. | Humidity | Pressure | Rain* | Wind** | Luminosity | Snow |
|---|---|---|---|---|---|---|---|
| 1778046603 | 16.67° C | 77% | 1011.7 hPa | 0 mm | 4.02 m/s, 86° | - | - |
| 1778046543 | 16.67° C | 77% | 1011.8 hPa | 0 mm | 4.02 m/s, 86° | - | - |
| 1778046483 | 16.67° C | 77% | 1011.6 hPa | 0 mm | 4.02 m/s, 89° | - | - |
| 1778046423 | 16.67° C | 77% | 1011.8 hPa | 0 mm | 4.02 m/s, 90° | - | - |
| 1778046363 | 16.67° C | 77% | 1011.8 hPa | 0 mm | 4.02 m/s, 91° | - | - |
| 1778046303 | 16.67° C | 77% | 1011.7 hPa | 0 mm | 4.02 m/s, 92° | - | - |
| 1778046243 | 16.11° C | 76% | 1011.8 hPa | 0 mm | 4.02 m/s, 91° | - | - |
| 1778046183 | 16.67° C | 76% | 1011.7 hPa | 0 mm | 4.02 m/s, 87° | - | - |
| 1778046123 | 16.11° C | 76% | 1011.6 hPa | 0 mm | 4.02 m/s, 87° | - | - |
| 1778046063 | 16.67° C | 76% | 1011.9 hPa | 0 mm | 4.02 m/s, 88° | - | - |
| 1778046003 | 16.11° C | 76% | 1011.8 hPa | 0 mm | 3.58 m/s, 85° | - | - |
| 1778045943 | 16.11° C | 76% | 1011.6 hPa | 0 mm | 3.58 m/s, 83° | - | - |
| 1778045883 | 16.11° C | 75% | 1011.9 hPa | 0 mm | 3.58 m/s, 81° | - | - |
| 1778045823 | 16.11° C | 75% | 1011.5 hPa | 0 mm | 3.58 m/s, 81° | - | - |
| 1778045763 | 16.11° C | 75% | 1011.9 hPa | 0 mm | 4.02 m/s, 81° | - | - |
| 1778045703 | 16.11° C | 75% | 1011.6 hPa | 0 mm | 4.02 m/s, 79° | - | - |
| 1778045643 | 16.11° C | 75% | 1011.5 hPa | 0 mm | 4.02 m/s, 80° | - | - |
| 1778045583 | 16.11° C | 75% | 1011.7 hPa | 0 mm | 4.02 m/s, 83° | - | - |
| 1778045523 | 16.11° C | 75% | 1011.7 hPa | 0 mm | 4.02 m/s, 82° | - | - |
| 1778045463 | 16.11° C | 75% | 1011.6 hPa | 0 mm | 4.02 m/s, 86° | - | - |
| 1778045403 | 16.11° C | 75% | 1011.7 hPa | 0 mm | 4.02 m/s, 88° | - | - |
| 1778045343 | 16.11° C | 75% | 1011.6 hPa | 0 mm | 4.02 m/s, 94° | - | - |
| 1778045283 | 16.11° C | 75% | 1011.7 hPa | 0 mm | 4.02 m/s, 97° | - | - |
| 1778045223 | 16.11° C | 75% | 1011.5 hPa | 0 mm | 4.02 m/s, 96° | - | - |
| 1778045163 | 16.11° C | 75% | 1011.7 hPa | 0 mm | 4.02 m/s, 98° | - | - |
* Rain latest hour (hover to see other rain measurements)
** Current wind speed in m/s (hover to see current wind gust speed)